星链-3254 (STARLINK-3254 )

导读

STARLINK-3254是美国太空探索技术公司(SpaceX)发射的星链(Starlink)卫星,发射于2021年12月18日。作为星链互联网卫星星座的一员,它旨在为全球尤其是偏远地区提供高速低延迟的宽带互联网服务,是SpaceX构建全球卫星互联网计划的重要组成部分。

基本信息
目录编号:
50204
目录名称:
STARLINK-3254
国际标识:
2021-125BA
轨道中心:
EARTH
卫星名称:
星链-3254
卫星全名:
星链-3254 (STARLINK-3254 )
卫星状态:
在轨 (已飞行1721 天)
发射日期:
2021-12-18 UTC
国别 :
美国 (US)
星等 :
--
轨道信息
数据来源 国际轨道数据 AOE轨道数据
星历时间 2026-09-04T10:52:19+0800
7小时前
查看轨道信息
2026-09-03T23:00:00+0800
19小时前
查看轨道信息
半长轴 6848.888km 6848.843km
偏心率 0.0001159 0.0001031
轨道倾角 53.160° 53.158°
近地点辐角 102.477° 107.323°
升交点赤经 149.206° 151.509°
平近点角 257.636° 43.669°
近地点 469.957km 469.999km
远地点 471.545km 471.413km
周期 94.013分钟 94.012分钟
每日圈数 15.316965 15.317115
详细信息
固有亮度:
5
最大亮度:
2.5
卫星平台:
Starlink v1.5
覆盖范围:
全球
运营商:
太空探索技术公司
运营商所在国:
美国
制造商(研发单位):
太空探索技术公司
制造商所在国:
美国
使用方式:
暂无
卫星简介
星链(Starlink)计划是由太空探索技术公司(SpaceX)提出的一个巨型低轨卫星互联网星座项目,计划在2019年至2024年间在太空搭建由约1.2万颗卫星组成的“星链”网络,其中1584颗将部署在地球上空550千米处的近地轨道,并从2020年开始工作。该卫星仍在工作。
2D轨道图
3D轨道图
轨道高度分析图
轨道倾角分析图
轨道综合分析图
查看轨道综合分析图
交会数据列表
事件ID 空间交会对象 最接近时刻(TCA) 交会距离 交会风险概率(CRP) 交会风险指数(CRI) 操作
CDM_260906-082105-020405-941321
2026-09-06T
08:21:41+0000
1.373 km
极远距离
3.33904E-6 低风险 0.45
CDM_260905-171005-020406-552621
2026-09-05T
17:10:55+0000
2.664 km
极远距离
1.57387E-6 低风险 0.39
CDM_260905-231405-020406-766221
2026-09-05T
23:14:17+0000
2.728 km
极远距离
1.473743E-6 低风险 0.38
CDM_260906-105605-020405-850221
OBJECT A (58502)
2026-09-06T
10:56:37+0000
2.857 km
极远距离
1.355176E-6 低风险 0.38
CDM_260904-110905-020406-930421
2026-09-04T
11:09:49+0000
2.863 km
极远距离
1.338807E-6 低风险 0.38
CDM_260905-105105-020406-822021
2026-09-05T
10:51:10+0000
2.531 km
极远距离
1.037945E-6 低风险 0.35
CDM_260904-193305-020406-801621
2026-09-04T
19:33:43+0000
2.837 km
极远距离
1.016214E-6 低风险 0.35
CDM_260904-164405-020406-904721
2026-09-04T
16:44:01+0000
2.839 km
极远距离
9.923186E-7 极低风险 0.35